Location: Bennemühlen
(52.5740°N, 9.7135°E)
Time: 17:32:38
(UTC+00:00)

Tiros 1 despin weight - Pass Details

Date: 20 February 2026
Orbit: 556 x 593 km, 48.2° (Epoch: 11 March)

Event Time Altitude Azimuth Distance (km) Brightness Sun altitude
Rises 17:12:53 0° 269° (W) 2,737 ? -5.2°
Reaches altitude 10° 17:15:14 10° 262° (W) 1,839 ? -5.6°
Maximum altitude 17:19:09 39° 193° (SSW) 835 ? -6.1°
Drops below altitude 10° 17:23:04 10° 124° (SE) 1,837 ? -6.7°
Enters shadow 17:24:38 - 118° (ESE) 2,429 ? -7.0°
Sets 17:25:25 0° 117° (ESE) 2,734 - -7.1°
